Tracking 19709 objects as of 20-Jun-2019
HD Live streaming from Space Station
objects crossing your sky now

SL-8 R/B

Track SL-8 R/B now!
10-day predictions


NORAD ID: 13354
Int'l Code: 1982-069B
Perigee: 937.8 km
Apogee: 1,012.2 km
Inclination: 83.0 °
Period: 104.4 minutes
Semi major axis: 7345 km
RCS: 4.6655 m2 (large)
Launch date: July 7, 1982
Source: Commonwealth of Independent States (former USSR) (CIS)
Launch site: PLESETSK MISSILE AND SPACE COMPLEX (PKMTR)

Note: This is a ROCKET BODY
aabbcc
Your satellite tracking list
Your tracking list is empty




NASA's NSSDC Master Catalog

Two Line Element Set (TLE):
1 13354U 82069B   19170.88673175 +.00000102 +00000-0 +84542-4 0  9994
2 13354 082.9583 156.1520 0050659 232.2429 127.4135 13.78888077858508
Source of the keplerian elements: AFSPC